Tracking 19634 objects as of 23-May-2019
HD Live streaming from Space Station
objects crossing your sky now

S80/T

Track S80/T now!
10-day predictions
S80/T is classified as:


NORAD ID: 22078
Int'l Code: 1992-052C
Perigee: 1,316.3 km
Apogee: 1,326.5 km
Inclination: 66.1 °
Period: 111.9 minutes
Semi major axis: 7692 km
RCS: 0.3013 m2 (medium)
Launch date: August 10, 1992
Source: France (FR)
Launch site: FRENCH GUIANA (FRGUI)
aabbcc
Your satellite tracking list
Your tracking list is empty




NASA's NSSDC Master Catalog

Two Line Element Set (TLE):
1 22078U 92052C   19142.87835823 -.00000053  00000-0  33303-4 0  9993
2 22078  66.0854 280.2669 0006641 350.3028   9.7861 12.86792414258359
Source of the keplerian elements: AFSPC